Location: SBMNH
(34.4407°N, 119.7157°W)
Time: 21:01:16
(UTC-07:00)

X-37B - Pass Details

Date: 20 August 2022
Orbit: 329 x 342 km, 45.0° (Epoch: 29 September)

Event Time Altitude Azimuth Distance (km) Brightness Sun altitude
Rises 21:27:58 0° 257° (WSW) 2,080 4.9 -21.1°
Reaches altitude 10° 21:30:04 10° 268° (W) 1,249 3.9 -21.5°
Enters shadow 21:32:27 31° 326° (NW) 602 2.1 -21.9°
